[[{"header":{"parameterUnit":"m.s-1","parameterCategory":2,"la1":30.2991,"la2":30.254,"lo1":-89.0895,"lo2":-89.0444,"dy":0.0017,"dx":0.0017,"nx":28,"ny":28,"refTime":"2025-05-27T03:00:00:Z","depth":"0","parameterNumber":2,"parameterNumberName":"U-component_of_CURRENTS"},"data":[0,0,0,0,0,0,0,0,0,0,0,0,0,0,0,0,0,0,0,0,0,0,0,0,0,0,0,0,0,0,0,0,0,0,0,0,0,0,0,0,0,0,0,0,0,0,0,0,0,0,0,0,0,0,0,0,0,0,0.3082,0.3083,0,0.3159,0.3159,0.316,0.3171,0.3171,0.317,0.317,0.3225,0.3227,0.3229,0,0,0,0,0,0,0,0,0,0,0,0,0,0.2949,0.2951,0.3082,0.3083,0.3084,0.3159,0.3159,0.316,0.3171,0.3171,0.317,0.3169,0.3224,0.3227,0.3229,0,0,0,0,0,0,0,0,0,0,0,0,0,0.3012,0.2952,0.3081,0.31,0.3103,0.3158,0.3159,0.316,0.3171,0.3171,0.317,0.3169,0.3224,0.3226,0.3229,0.3261,0,0,0.3238,0.3239,0,0,0,0,0,0,0,0,0.3008,0.3016,0.3096,0.3099,0.3102,0.3157,0.3133,0.3194,0.3171,0.3143,0.317,0.3169,0.3202,0.3207,0.322,0.3264,0.3266,0.3238,0.324,0.3241,0.3242,0,0,0,0,0,0,0,0.3004,0.3013,0.311,0.3098,0.3101,0.3107,0.3115,0.3144,0.3173,0.3145,0.3147,0.316,0.3203,0.3217,0.3221,0.3267,0.3238,0.3241,0.3242,0.3244,0.3357,0.3358,0,0,0,0,0,0,0.3,0.3009,0.3107,0.3112,0.3055,0.311,0.3119,0.3138,0.3173,0.3179,0.316,0.316,0.3212,0.3218,0.3223,0.3282,0.3241,0.3244,0.3245,0.3356,0.3357,0.3359,0,0,0,0,0,0,0.2997,0.3009,0.3104,0.3064,0.3076,0.3113,0.3135,0.314,0.3158,0.3186,0.319,0.3173,0.3212,0.3219,0.3255,0.3284,0.3245,0.3248,0.3354,0.3356,0.3358,0.3389,0,0,0,0,0,0,0.2993,0.3007,0.3019,0.3064,0.3079,0.3147,0.3136,0.3142,0.3168,0.3168,0.3199,0.3203,0.3212,0.3251,0.3258,0.3287,0.325,0.3353,0.3355,0.3358,0.3386,0.3391,0.3396,0,0,0,0,0,0.2988,0.301,0.302,0.3032,0.3095,0.3148,0.3157,0.3178,0.3169,0.3188,0.3202,0.3202,0.3271,0.3254,0.3262,0.3293,0.3352,0.3355,0.3357,0.3384,0.339,0.3396,0,0,0,0,0,0,0.2964,0.3015,0.3026,0.3064,0.3107,0.3151,0.3173,0.3183,0.321,0.3208,0.3219,0.3226,0.3274,0.3278,0.3258,0.3333,0.3312,0.3316,0.3329,0.3335,0.334,0.3336,0.3252,0,0,0,0,0,0.2964,0.299,0.3043,0.3074,0.3098,0.3135,0.3157,0.3175,0.3206,0.3217,0.3235,0.3258,0.3294,0.3307,0.334,0.3376,0.3423,0.3401,0.3406,0.341,0.3413,0.3499,0.3512,0.3368,0.3368,0.3368,0,0,0.2961,0.2995,0.3009,0.307,0.3104,0.3139,0.3146,0.3191,0.3214,0.322,0.3253,0.3283,0.331,0.3356,0.3377,0.336,0.3485,0.3414,0.3417,0.3418,0.3504,0.3518,0.353,0.337,0.337,0.337,0,0,0.2967,0.3004,0.3025,0.3063,0.312,0.315,0.3163,0.3214,0.3233,0.3275,0.3288,0.3329,0.3373,0.3401,0.3419,0.347,0.3516,0.3483,0.3498,0.3582,0.3595,0.3606,0.3724,0.3746,0.3476,0.3476,0.3476,0,0.296,0.2999,0.3041,0.3073,0.3102,0.3152,0.3181,0.3217,0.3268,0.3292,0.3289,0.3379,0.3396,0.346,0.3473,0.3483,0.355,0.3471,0.359,0.3602,0.3613,0.3731,0.3754,0.3478,0.3478,0.3478,0.3478,0,0.2982,0.3014,0.3036,0.3088,0.3123,0.3166,0.3218,0.3259,0.3286,0.3319,0.3394,0.3431,0.3481,0.3498,0.3498,0.3587,0.3619,0.3594,0.3574,0.3629,0.375,0.3774,0.3481,0.348,0.348,0.3479,0,0,0.2957,0.3034,0.3038,0.3069,0.3136,0.3175,0.3222,0.3288,0.3351,0.3386,0.3465,0.3503,0.3531,0.3554,0.3576,0.3635,0.3778,0.3644,0.3648,0.3762,0.4007,0.3987,0.4011,0.3779,0.3782,0.3785,0.4075,0,0.2962,0.3016,0.3049,0.3103,0.3142,0.3199,0.3253,0.3316,0.3385,0.3481,0.3519,0.3611,0.3552,0.3613,0.365,0.3769,0.3837,0.3705,0.3935,0.3943,0.3917,0.4035,0.3864,0.4102,0.4098,0.4102,0.4105,0,0.2967,0.3006,0.3051,0.3137,0.3161,0.3197,0.3312,0.3374,0.3501,0.3563,0.3631,0.3691,0.3791,0.3741,0.3923,0.3849,0.3919,0.399,0.4003,0.3983,0.3965,0.4038,0.4146,0.4064,0.4142,0.4139,0.4136,0,0.2937,0.3009,0.3045,0.3071,0.3172,0.3206,0.327,0.339,0.3475,0.3638,0.374,0.3833,0.3949,0.4019,0.4129,0.4055,0.4359,0.4276,0.4323,0.4325,0.4221,0.4207,0.4268,0.4398,0.4397,0.4396,0.4395,0,0.2935,0.2966,0.3038,0.3063,0.3133,0.3205,0.3313,0.3403,0.356,0.369,0.3782,0.3925,0.4026,0.419,0.4227,0.438,0.4437,0.4367,0.4402,0.4231,0.4214,0.4168,0.4134,0.4407,0.4405,0.4403,0.4401,0,0.2904,0.2947,0.3002,0.3093,0.3121,0.3179,0.3321,0.3423,0.3579,0.3766,0.3831,0.4055,0.428,0.4389,0.4591,0.4548,0.4568,0.4701,0.4514,0.4518,0.4406,0.4379,0.4334,0.4206,0.4796,0.4797,0.4798,0,0.29,0.2919,0.3006,0.305,0.3089,0.3182,0.3262,0.3408,0.3528,0.3841,0.3942,0.4228,0.4413,0.4718,0.4729,0.4846,0.4675,0.4731,0.4513,0.4416,0.4415,0.4209,0.4087,0.4424,0.4422,0.442,0.4419,0,0.2895,0.2919,0.2976,0.3063,0.3132,0.3202,0.3326,0.3404,0.3619,0.3788,0.4054,0.4239,0.4548,0.4616,0.4776,0.4785,0.4507,0.4697,0.4639,0.4174,0.3913,0.38,0.4252,0.4403,0.4405,0.4406,0.4407,0.4407,0.2898,0.2944,0.3027,0.3105,0.3165,0.3222,0.3264,0.3404,0.3561,0.3786,0.4026,0.4222,0.4438,0.4633,0.4632,0.4506,0.4444,0.4346,0.4351,0.4172,0.3931,0.437,0.4512,0.4514,0.4516,0.4518,0.4519,0,0.2939,0.3001,0.3074,0.3154,0.3187,0.322,0.3315,0.334,0.3466,0.3665,0.3868,0.4063,0.4193,0.4294,0.4302,0.4173,0.392,0.4079,0.3737,0.3652,0.4106,0.3968,0.3945,0.3945,0.3946,0.3946,0.3946,0.3946,0.2974,0.3062,0.3103,0.3159,0.3189,0.3181,0.3199,0.3223,0.3307,0.3408,0.3479,0.3651,0.3957,0.4181,0.4086,0.3967,0.3658,0.3519,0.3518,0.3848,0.387,0.389,0.375,0.3682,0.3682,0.2847,0.2841,0.2837]},{"header":{"parameterUnit":"m.s-1","parameterCategory":2,"la1":30.2991,"la2":30.254,"lo1":-89.0895,"lo2":-89.0444,"dy":0.0017,"dx":0.0017,"nx":28,"ny":28,"refTime":"2025-05-27T03:00:00:Z","depth":"0","parameterNumber":3,"parameterNumberName":"V-component_of_CURRENTS"},"data":[0,0,0,0,0,0,0,0,0,0,0,0,0,0,0,0,0,0,0,0,0,0,0,0,0,0,0,0,0,0,0,0,0,0,0,0,0,0,0,0,0,0,0,0,0,0,0,0,0,0,0,0,0,0,0,0,0,0,0.0172,0.0172,0,0.0105,0.0104,0.0103,0.0038,0.0037,0.0037,0.0036,-0.0106,-0.0109,-0.0112,0,0,0,0,0,0,0,0,0,0,0,0,0,0.019,0.019,0.0172,0.0172,0.0171,0.0105,0.0104,0.0103,0.0038,0.0037,0.0036,0.0036,-0.0105,-0.0109,-0.0113,0,0,0,0,0,0,0,0,0,0,0,0,0,0.0157,0.019,0.0173,0.0132,0.0128,0.0105,0.0104,0.0102,0.0038,0.0037,0.0036,0.0035,-0.0104,-0.0109,-0.0113,-0.0122,0,0,-0.0128,-0.013,0,0,0,0,0,0,0,0,0.0159,0.0156,0.0139,0.0135,0.013,0.008,0.0058,0.0024,0.0038,0.007,0.0036,0.0035,-0.0049,-0.0058,-0.007,-0.0129,-0.0135,-0.0128,-0.0131,-0.0133,-0.0134,0,0,0,0,0,0,0,0.0161,0.0158,0.0144,0.0138,0.0133,0.0098,0.0093,0.0051,0.0014,0.0068,0.0063,0.0059,-0.0052,-0.0065,-0.0074,-0.0137,-0.0128,-0.0132,-0.0135,-0.0137,-0.0219,-0.0218,0,0,0,0,0,0,0.0178,0.0161,0.0146,0.0142,0.0144,0.0099,0.0093,0.0096,0.0016,0.0004,0.006,0.0056,-0.0057,-0.0069,-0.008,-0.0083,-0.0133,-0.0138,-0.014,-0.0219,-0.0219,-0.0218,0,0,0,0,0,0,0.0178,0.0177,0.0149,0.0151,0.0145,0.0101,0.0104,0.0095,0.0083,0.0012,-0.0003,0.0057,-0.0058,-0.0073,-0.0107,-0.009,-0.014,-0.0144,-0.022,-0.0219,-0.0218,-0.0099,0,0,0,0,0,0,0.0179,0.0178,0.0184,0.0152,0.0145,0.0146,0.0105,0.0095,0.0083,0.0077,0.0005,-0.001,-0.006,-0.01,-0.0112,-0.0098,-0.0148,-0.0221,-0.022,-0.0218,-0.0104,-0.0094,-0.0086,0,0,0,0,0,0.018,0.02,0.0185,0.0183,0.0156,0.0147,0.0141,0.0104,0.0084,0.0087,0.0039,-0.0007,-0.0101,-0.0103,-0.0117,-0.0104,-0.0222,-0.022,-0.0219,-0.0108,-0.0096,-0.0086,0,0,0,0,0,0,0.0211,0.0195,0.0177,0.019,0.0173,0.0137,0.0137,0.0114,0.008,0.0072,0.0003,-0.0014,-0.004,-0.0087,-0.0087,-0.0125,-0.0169,-0.0171,-0.008,-0.007,-0.0061,-0.0037,-0.0152,0,0,0,0,0,0.0222,0.0231,0.0207,0.0217,0.0213,0.0177,0.0168,0.0147,0.0114,0.0098,0.0049,-0.0004,-0.0044,-0.0068,-0.0114,-0.013,-0.0163,-0.0133,-0.0124,-0.0116,-0.0107,-0.0136,-0.0128,-0.0213,-0.0213,-0.0213,0,0,0.0234,0.0229,0.0231,0.0224,0.0206,0.0216,0.0169,0.0166,0.0173,0.0087,0.0079,0.0025,-0.0042,-0.0062,-0.0077,-0.0099,-0.0106,-0.0114,-0.0106,-0.0102,-0.0133,-0.0125,-0.0117,-0.0212,-0.0212,-0.0212,0,0,0.0272,0.0262,0.0282,0.0279,0.0267,0.0248,0.0254,0.0225,0.021,0.0196,0.0137,0.01,0.0037,-0.0002,-0.0032,0.0,-0.0057,-0.0019,0.0047,0.0019,0.0026,0.0032,0.002,0.0024,-0.0013,-0.0013,-0.0013,0,0.0286,0.0312,0.0287,0.031,0.0316,0.0271,0.0298,0.0282,0.0245,0.0243,0.0207,0.013,0.0068,0.0052,0.0057,0.0022,0.0001,0.0015,0.0033,0.0038,0.0042,0.0028,0.0031,-0.0007,-0.0008,-0.0008,-0.0009,0,0.034,0.036,0.0376,0.0391,0.0394,0.0411,0.0391,0.0389,0.0363,0.0342,0.032,0.0241,0.0196,0.0169,0.0118,0.0118,0.0093,0.005,0.0013,0.0058,0.004,0.0041,0.0001,-0.0001,-0.0003,-0.0004,0,0,0.0372,0.0407,0.0412,0.0441,0.0441,0.0456,0.0472,0.0479,0.0511,0.045,0.0482,0.0389,0.0345,0.0308,0.024,0.0209,0.0214,0.0148,0.0144,0.0149,0.0169,0.0161,0.016,0.0176,0.0176,0.0176,0.0153,0,0.042,0.0488,0.0487,0.0551,0.0586,0.0565,0.0598,0.0598,0.0585,0.0606,0.0522,0.0521,0.0399,0.0394,0.0337,0.026,0.0218,0.0225,0.0112,0.0109,0.0107,0.0162,0.0131,0.0108,0.0153,0.0153,0.0153,0,0.0472,0.0515,0.0588,0.0653,0.0668,0.0703,0.0756,0.0782,0.0789,0.0785,0.0748,0.0686,0.0635,0.053,0.0398,0.0411,0.0293,0.0216,0.0213,0.0163,0.0102,0.0063,0.0106,-0.0101,0.0153,0.0153,0.0153,0,0.0517,0.0587,0.0653,0.0673,0.0736,0.0774,0.0811,0.0839,0.0908,0.0913,0.0975,0.0857,0.0864,0.0685,0.0505,0.0457,0.0376,0.0287,0.0162,0.016,0.0091,0.0083,-0.0071,0.0179,0.0179,0.0179,0.0179,0,0.0575,0.0628,0.0688,0.0729,0.0841,0.0853,0.0979,0.0996,0.1076,0.1205,0.1082,0.1166,0.0905,0.0819,0.0591,0.0408,0.0434,0.0192,0.0158,0.0133,0.0129,-0.0092,-0.0221,0.0178,0.0178,0.0178,0.0179,0,0.0624,0.065,0.0746,0.083,0.0869,0.0958,0.1117,0.1221,0.1274,0.1445,0.1468,0.1429,0.1329,0.1061,0.0818,0.0573,0.0229,0.0277,0.0276,0.0242,-0.0094,-0.0214,-0.0423,-0.053,0.0131,0.0131,0.0131,0,0.066,0.0712,0.0834,0.0924,0.0975,0.1114,0.1231,0.1313,0.1451,0.1629,0.1737,0.1697,0.1712,0.1356,0.0906,0.0521,0.0268,0.0223,0.01,-0.0095,-0.0255,-0.0359,-0.0442,0.0057,0.0056,0.0055,0.0055,0,0.0751,0.079,0.0885,0.1061,0.1195,0.1351,0.1526,0.166,0.1804,0.1958,0.2147,0.2178,0.1864,0.1465,0.0934,0.0644,0.0055,0.0198,-0.0016,-0.0325,-0.0439,-0.0562,0.0065,0.0049,0.0049,0.005,0.005,0.005,0.0838,0.0935,0.1068,0.1234,0.1387,0.1577,0.1733,0.1932,0.2164,0.2413,0.2423,0.2493,0.1944,0.1223,0.0819,0.0041,0.0025,-0.0234,-0.036,-0.0442,-0.0566,0.0069,0.002,0.002,0.002,0.0021,0.0021,0,0.0969,0.1075,0.124,0.1438,0.1613,0.1663,0.1931,0.2108,0.2389,0.2574,0.2722,0.2461,0.1781,0.1081,0.0045,-0.0455,-0.0655,-0.0718,-0.0901,-0.0958,-0.0402,-0.0425,-0.0559,-0.0558,-0.0558,-0.0558,-0.0558,-0.0558,0.1052,0.1231,0.1307,0.1596,0.1735,0.1987,0.2139,0.2386,0.2561,0.2773,0.277,0.2751,0.2221,0.0449,-0.0704,-0.095,-0.1312,-0.1404,-0.1545,-0.1199,-0.1164,-0.1131,-0.1183,-0.1473,-0.1474,-0.2067,-0.2074,-0.2078]}],[{"header":{"parameterUnit":"m.s-1","parameterCategory":2,"la1":30.2991,"la2":30.254,"lo1":-89.0895,"lo2":-89.0444,"dy":0.0017,"dx":0.0017,"nx":28,"ny":28,"refTime":"2025-05-27T03:00:00:Z","depth":"2","parameterNumber":2,"parameterNumberName":"U-component_of_CURRENTS"},"data":[0,0,0,0,0,0,0,0,0,0,0,0,0,0,0,0,0,0,0,0,0,0,0,0,0,0,0,0,0,0,0,0,0,0,0,0,0,0,0,0,0,0,0,0,0,0,0,0,0,0,0,0,0,0,0,0,0,0,0.2916,0.2917,0,0.2988,0.2988,0.2989,0.3017,0.3017,0.3017,0.3017,0.3081,0.3083,0.3084,0,0,0,0,0,0,0,0,0,0,0,0,0,0.2798,0.2799,0.2916,0.2917,0.2918,0.2988,0.2988,0.2989,0.3017,0.3017,0.3017,0.3017,0.3081,0.3082,0.3084,0,0,0,0,0,0,0,0,0,0,0,0,0,0.2853,0.28,0.2915,0.2943,0.2947,0.2988,0.2988,0.2989,0.3017,0.3017,0.3017,0.3017,0.308,0.3082,0.3085,0.3094,0,0,0.3092,0.3093,0,0,0,0,0,0,0,0,0.285,0.2857,0.2938,0.2942,0.2946,0.2997,0.297,0.3025,0.3017,0.2986,0.3017,0.3017,0.3055,0.3059,0.3066,0.3097,0.31,0.3092,0.3093,0.3094,0.3095,0,0,0,0,0,0,0,0.2846,0.2854,0.294,0.2939,0.2944,0.2951,0.2959,0.2981,0.3015,0.2989,0.2992,0.3006,0.3056,0.3064,0.3068,0.3101,0.3092,0.3094,0.3095,0.3096,0.3198,0.3199,0,0,0,0,0,0,0.2846,0.2851,0.2938,0.2943,0.2902,0.2953,0.2962,0.2977,0.3015,0.3022,0.3006,0.3007,0.306,0.3066,0.3071,0.3135,0.3094,0.3096,0.3098,0.3197,0.3199,0.32,0,0,0,0,0,0,0.2843,0.2853,0.2935,0.2901,0.2913,0.2956,0.2972,0.2978,0.3002,0.3029,0.3035,0.3026,0.306,0.3067,0.3109,0.3136,0.3097,0.31,0.3195,0.3197,0.3199,0.3232,0,0,0,0,0,0,0.2839,0.2851,0.2867,0.2901,0.2915,0.2972,0.2973,0.298,0.3012,0.3014,0.3048,0.3053,0.3061,0.3106,0.3111,0.3138,0.3101,0.3194,0.3196,0.3199,0.3229,0.3234,0.3239,0,0,0,0,0,0.2835,0.2859,0.2867,0.2878,0.2933,0.2974,0.2981,0.3009,0.3013,0.3029,0.3053,0.3053,0.3125,0.3109,0.3115,0.3143,0.3193,0.3196,0.3198,0.3227,0.3233,0.3239,0,0,0,0,0,0,0.2823,0.2866,0.2875,0.2913,0.2945,0.298,0.3009,0.3017,0.3048,0.3058,0.3069,0.3077,0.313,0.313,0.3111,0.3181,0.3159,0.3163,0.3178,0.3185,0.319,0.319,0.3103,0,0,0,0,0,0.2826,0.2851,0.2891,0.2922,0.2945,0.2976,0.2998,0.3015,0.3047,0.3061,0.3081,0.3108,0.3144,0.3158,0.319,0.3221,0.3258,0.3244,0.3249,0.3253,0.3259,0.333,0.3342,0.321,0.321,0.321,0,0,0.2825,0.2857,0.2869,0.292,0.2952,0.2981,0.299,0.3034,0.3055,0.3063,0.3104,0.3134,0.316,0.3205,0.3226,0.3207,0.3318,0.3257,0.326,0.3264,0.3334,0.3347,0.3359,0.3212,0.3211,0.3211,0,0,0.2834,0.2874,0.2893,0.2925,0.2979,0.3002,0.3017,0.306,0.3082,0.3124,0.3141,0.3184,0.3227,0.3251,0.3267,0.3318,0.3352,0.3329,0.3347,0.3416,0.3427,0.3438,0.3535,0.3553,0.3321,0.3321,0.3321,0,0.2833,0.2865,0.2905,0.2936,0.2965,0.301,0.3035,0.3068,0.3113,0.3138,0.3145,0.3234,0.325,0.3308,0.3324,0.333,0.3386,0.332,0.3423,0.3434,0.3444,0.354,0.3561,0.3323,0.3323,0.3323,0.3323,0,0.2849,0.2881,0.2906,0.2953,0.2986,0.3026,0.3073,0.3111,0.3145,0.3175,0.3252,0.3288,0.3338,0.3352,0.3352,0.343,0.3455,0.3431,0.3406,0.3459,0.3558,0.3579,0.3326,0.3325,0.3325,0.3324,0,0,0.2828,0.2899,0.2906,0.2937,0.3001,0.3036,0.3081,0.3139,0.3198,0.3239,0.3314,0.3359,0.3391,0.3412,0.3429,0.3476,0.36,0.3482,0.3485,0.3577,0.379,0.37,0.3714,0.3597,0.36,0.3602,0.3841,0,0.2828,0.2879,0.291,0.2964,0.3002,0.3056,0.3108,0.3167,0.3231,0.3321,0.3365,0.3457,0.3411,0.3469,0.35,0.359,0.3651,0.354,0.3724,0.3731,0.3642,0.3732,0.3433,0.361,0.3861,0.3865,0.3867,0,0.283,0.2868,0.291,0.2997,0.3022,0.3058,0.3166,0.3223,0.3341,0.34,0.347,0.3532,0.362,0.3583,0.373,0.3667,0.3729,0.3782,0.3792,0.3706,0.3677,0.3591,0.3638,0.3902,0.3899,0.3896,0.3894,0,0.2804,0.2873,0.2909,0.2936,0.3033,0.307,0.3135,0.3245,0.3326,0.3473,0.3568,0.3652,0.3758,0.3815,0.391,0.3842,0.4098,0.4014,0.3995,0.3991,0.3769,0.3739,0.4125,0.4125,0.4124,0.4124,0.4123,0,0.2803,0.2836,0.2908,0.2933,0.3005,0.3081,0.3182,0.3264,0.3414,0.3539,0.3619,0.3741,0.3825,0.3967,0.3994,0.4081,0.4168,0.4028,0.4046,0.3774,0.3744,0.4002,0.3985,0.4133,0.4131,0.4129,0.4127,0,0.2782,0.282,0.2875,0.2966,0.2994,0.3059,0.3199,0.329,0.3442,0.3616,0.3681,0.3865,0.402,0.4114,0.4271,0.4214,0.4296,0.4308,0.4001,0.3973,0.412,0.4102,0.4281,0.428,0.4279,0.4278,0.4278,0,0.2777,0.2799,0.2883,0.2926,0.2968,0.3064,0.3135,0.3279,0.3381,0.3681,0.3768,0.3995,0.4077,0.4276,0.4253,0.4305,0.4362,0.4067,0.3832,0.4137,0.4138,0.412,0.4104,0.3585,0.3579,0.3574,0.357,0,0.277,0.28,0.2854,0.2943,0.3007,0.3065,0.318,0.3244,0.3452,0.3594,0.3792,0.3891,0.4065,0.3956,0.4049,0.4024,0.401,0.3957,0.4406,0.3565,0.3492,0.3488,0.3493,0.3524,0.3528,0.3532,0.3534,0.3536,0.2766,0.282,0.2902,0.2989,0.3042,0.3076,0.3105,0.3192,0.3309,0.3453,0.3637,0.3658,0.3709,0.3619,0.3569,0.355,0.3775,0.361,0.3622,0.3641,0.349,0.3415,0.3409,0.3413,0.3416,0.3419,0.3421,0,0.28,0.2881,0.2952,0.3047,0.3075,0.3098,0.3154,0.3103,0.3147,0.3235,0.3303,0.3039,0.3006,0.3077,0.2967,0.2984,0.2906,0.2878,0.2749,0.2801,0.2845,0.2646,0.2346,0.2342,0.2338,0.2335,0,0,0.2829,0.2918,0.2971,0.3049,0.3095,0.3064,0.3049,0.2936,0.2914,0.2735,0.2695,0.2845,0.2984,0.259,0.2581,0.2453,0.259,0.2364,0.3243,0.3144,0.3183,0.3307,0.3066,0,0,0,0,0]},{"header":{"parameterUnit":"m.s-1","parameterCategory":2,"la1":30.2991,"la2":30.254,"lo1":-89.0895,"lo2":-89.0444,"dy":0.0017,"dx":0.0017,"nx":28,"ny":28,"refTime":"2025-05-27T03:00:00:Z","depth":"2","parameterNumber":3,"parameterNumberName":"V-component_of_CURRENTS"},"data":[0,0,0,0,0,0,0,0,0,0,0,0,0,0,0,0,0,0,0,0,0,0,0,0,0,0,0,0,0,0,0,0,0,0,0,0,0,0,0,0,0,0,0,0,0,0,0,0,0,0,0,0,0,0,0,0,0,0,0.0062,0.0062,0,-0.0001,-0.0002,-0.0003,-0.006,-0.006,-0.0061,-0.0061,-0.02,-0.0203,-0.0207,0,0,0,0,0,0,0,0,0,0,0,0,0,0.0084,0.0084,0.0063,0.0062,0.0061,-0.0001,-0.0002,-0.0003,-0.006,-0.006,-0.0061,-0.0061,-0.0199,-0.0203,-0.0207,0,0,0,0,0,0,0,0,0,0,0,0,0,0.0051,0.0084,0.0063,0.0027,0.0023,-0.0001,-0.0002,-0.0004,-0.006,-0.006,-0.0061,-0.0062,-0.0198,-0.0203,-0.0208,-0.0223,0,0,-0.0222,-0.0224,0,0,0,0,0,0,0,0,0.0053,0.005,0.0033,0.0029,0.0025,-0.0022,-0.0046,-0.008,-0.0059,-0.003,-0.0061,-0.0062,-0.0146,-0.0155,-0.0167,-0.0229,-0.0235,-0.0223,-0.0226,-0.0228,-0.0229,0,0,0,0,0,0,0,0.0056,0.0052,0.0035,0.0032,0.0028,-0.0004,-0.0009,-0.0053,-0.0086,-0.0033,-0.0036,-0.004,-0.0149,-0.0162,-0.0171,-0.0237,-0.0223,-0.0227,-0.023,-0.0232,-0.0319,-0.0319,0,0,0,0,0,0,0.0071,0.0055,0.0037,0.0034,0.004,-0.0003,-0.0009,-0.0007,-0.0084,-0.0095,-0.004,-0.0043,-0.0153,-0.0165,-0.0176,-0.0181,-0.0228,-0.0232,-0.0235,-0.032,-0.0319,-0.0318,0,0,0,0,0,0,0.0072,0.007,0.004,0.0044,0.0038,-0.0002,-0.0,-0.0008,-0.0017,-0.0088,-0.0101,-0.004,-0.0154,-0.0169,-0.0203,-0.0188,-0.0235,-0.0239,-0.0321,-0.032,-0.0319,-0.0203,0,0,0,0,0,0,0.0073,0.0071,0.0077,0.0045,0.0038,0.0036,0.0,-0.0009,-0.0018,-0.0023,-0.0093,-0.0106,-0.0156,-0.0195,-0.0208,-0.0195,-0.0243,-0.0321,-0.032,-0.0319,-0.0208,-0.0198,-0.019,0,0,0,0,0,0.0074,0.0093,0.0078,0.0076,0.0049,0.0037,0.0031,-0.0002,-0.0017,-0.0014,-0.0059,-0.0104,-0.0198,-0.0199,-0.0214,-0.0202,-0.0322,-0.032,-0.0319,-0.0212,-0.02,-0.0191,0,0,0,0,0,0,0.0105,0.0088,0.0071,0.0084,0.0065,0.0028,0.0031,0.0009,-0.0023,-0.0027,-0.0096,-0.0112,-0.0138,-0.0185,-0.0184,-0.0225,-0.0268,-0.0269,-0.0181,-0.0171,-0.0163,-0.0137,-0.0247,0,0,0,0,0,0.0117,0.0126,0.0099,0.0108,0.0104,0.007,0.0061,0.0041,0.0009,-0.0005,-0.0052,-0.0103,-0.0144,-0.0168,-0.0213,-0.0233,-0.0272,-0.0237,-0.0228,-0.022,-0.0211,-0.0252,-0.0245,-0.0314,-0.0314,-0.0314,0,0,0.0128,0.0123,0.0125,0.0116,0.0099,0.0107,0.0063,0.0061,0.0067,-0.0016,-0.0023,-0.0075,-0.0143,-0.0164,-0.018,-0.0201,-0.0219,-0.0219,-0.0211,-0.0206,-0.0249,-0.0243,-0.0237,-0.0313,-0.0313,-0.0313,0,0,0.0165,0.0157,0.0176,0.0172,0.016,0.0141,0.0147,0.0118,0.0104,0.009,0.0033,-0.0003,-0.0066,-0.0107,-0.0137,-0.0109,-0.0172,-0.0128,-0.0064,-0.0103,-0.0098,-0.0093,-0.0118,-0.0117,-0.0123,-0.0123,-0.0123,0,0.018,0.0202,0.0179,0.0201,0.0207,0.0164,0.0189,0.0173,0.0136,0.0133,0.0102,0.0024,-0.0036,-0.006,-0.0053,-0.0088,-0.0117,-0.0094,-0.009,-0.0087,-0.0084,-0.0112,-0.0112,-0.0117,-0.0118,-0.0119,-0.0119,0,0.0228,0.0249,0.0265,0.0279,0.0282,0.0298,0.0277,0.0275,0.0252,0.0231,0.0206,0.0128,0.0083,0.0056,0.0008,-0.0002,-0.003,-0.0072,-0.011,-0.007,-0.0102,-0.0104,-0.0109,-0.0111,-0.0113,-0.0114,0,0,0.0258,0.0292,0.0298,0.0326,0.0328,0.0341,0.0356,0.0358,0.0383,0.0329,0.0351,0.0265,0.0224,0.0187,0.012,0.0081,0.0071,0.0021,0.0016,0.0008,-0.0003,-0.0061,-0.0069,0.003,0.003,0.003,-0.0026,0,0.0302,0.0367,0.0367,0.0429,0.0462,0.0443,0.0473,0.047,0.0452,0.0462,0.0383,0.0374,0.0274,0.0264,0.0206,0.0108,0.0069,0.0091,-0.0052,-0.0056,-0.0103,-0.0073,-0.0051,-0.0104,-0.0029,-0.0029,-0.003,0,0.035,0.0392,0.0462,0.0524,0.0539,0.0572,0.0615,0.0638,0.0633,0.0623,0.0585,0.0522,0.046,0.0376,0.0223,0.0243,0.0133,0.0049,0.0044,-0.0053,-0.0118,-0.0138,-0.0112,-0.0034,-0.0034,-0.0034,-0.0033,0,0.0392,0.046,0.0524,0.0544,0.0603,0.064,0.0675,0.0692,0.0749,0.0736,0.0778,0.0659,0.0643,0.0476,0.0293,0.0259,0.0136,0.0062,-0.0093,-0.0098,-0.013,-0.0138,-0.0039,-0.0039,-0.0039,-0.0039,-0.0039,0,0.0445,0.0498,0.0558,0.0597,0.07,0.0717,0.0824,0.0836,0.0899,0.1005,0.0879,0.0922,0.0669,0.0563,0.0357,0.014,0.018,-0.0072,-0.0117,-0.0089,-0.0093,-0.008,-0.0084,-0.0041,-0.004,-0.004,-0.004,0,0.0492,0.0518,0.0609,0.069,0.0726,0.0811,0.0951,0.1032,0.1077,0.1213,0.1229,0.1137,0.0973,0.0719,0.0461,0.0249,0.0031,-0.0054,0.0002,-0.0037,-0.0197,-0.0195,-0.0255,-0.0258,-0.026,-0.0261,-0.0263,0,0.0522,0.0571,0.0687,0.0769,0.0818,0.0946,0.1042,0.1114,0.1219,0.1357,0.1431,0.1324,0.1207,0.0795,0.0427,0.0052,0.0028,-0.0153,-0.0241,-0.0182,-0.022,-0.0214,-0.0208,-0.0228,-0.0229,-0.023,-0.023,0,0.0593,0.0632,0.0719,0.0884,0.0997,0.1131,0.1278,0.1376,0.15,0.1611,0.1686,0.1598,0.121,0.0796,0.0311,0.0064,-0.0109,-0.0188,-0.0119,-0.0186,-0.0165,-0.0199,-0.0193,-0.0238,-0.0238,-0.0237,-0.0237,-0.0236,0.0653,0.0742,0.0863,0.1025,0.1159,0.1307,0.1436,0.1572,0.1738,0.1891,0.1814,0.1699,0.1259,0.0569,0.0181,-0.0189,-0.0196,-0.0347,-0.0341,-0.0334,-0.0331,-0.0316,-0.0416,-0.0416,-0.0416,-0.0416,-0.0416,0,0.0741,0.0857,0.1003,0.1202,0.1345,0.1402,0.16,0.1688,0.187,0.1953,0.1959,0.1499,0.1047,0.0605,0.0033,-0.0359,-0.0377,-0.0462,-0.0388,-0.0378,-0.037,-0.0365,-0.0461,-0.0462,-0.0463,-0.0464,0,0,0.0796,0.0943,0.1022,0.1298,0.1458,0.1628,0.173,0.1844,0.1914,0.1934,0.1897,0.1705,0.1148,0.0722,0.0215,-0.0096,-0.0147,-0.0171,-0.0099,0.0059,0.0072,-0.0276,-0.0255,0,0,0,0,0]}],[{"header":{"parameterUnit":"m.s-1","parameterCategory":2,"la1":30.2991,"la2":30.254,"lo1":-89.0895,"lo2":-89.0444,"dy":0.0017,"dx":0.0017,"nx":28,"ny":28,"refTime":"2025-05-27T03:00:00:Z","depth":"4","parameterNumber":2,"parameterNumberName":"U-component_of_CURRENTS"},"data":[0,0,0,0,0,0,0,0,0,0,0,0,0,0,0,0,0,0,0,0,0,0,0,0,0,0,0,0,0,0,0,0,0,0,0,0,0,0,0,0,0,0,0,0,0,0,0,0,0,0,0,0,0,0,0,0,0,0,0.1557,0.1558,0,0.165,0.1651,0.1652,0.1734,0.1735,0.1736,0.1737,0.1839,0.1841,0.1842,0,0,0,0,0,0,0,0,0,0,0,0,0,0.1497,0.1497,0.1557,0.1558,0.1559,0.165,0.1651,0.1653,0.1734,0.1735,0.1737,0.1738,0.1838,0.184,0.1843,0,0,0,0,0,0,0,0,0,0,0,0,0,0.1549,0.1497,0.1557,0.1611,0.1617,0.165,0.1651,0.1653,0.1734,0.1735,0.1737,0.1738,0.1838,0.184,0.1843,0.1832,0,0,0.1851,0.1853,0,0,0,0,0,0,0,0,0.1546,0.1552,0.1602,0.1607,0.1614,0.1682,0.1668,0.1713,0.1734,0.169,0.1737,0.1739,0.1786,0.1793,0.1808,0.1836,0.1841,0.1852,0.1853,0.1854,0.1855,0,0,0,0,0,0,0,0.1542,0.1548,0.1594,0.1603,0.161,0.1647,0.1655,0.1677,0.1729,0.1693,0.17,0.1709,0.179,0.1805,0.1811,0.1842,0.1852,0.1854,0.1856,0.1857,0.2005,0.2007,0,0,0,0,0,0,0.1527,0.1544,0.1591,0.1597,0.1583,0.1646,0.1656,0.1659,0.1729,0.1741,0.1708,0.1713,0.1799,0.1807,0.1814,0.1923,0.1854,0.1857,0.1859,0.2003,0.2005,0.2008,0,0,0,0,0,0,0.1525,0.153,0.1587,0.1573,0.1583,0.1646,0.1648,0.166,0.1715,0.174,0.1752,0.1756,0.1801,0.1811,0.1881,0.1923,0.1858,0.1861,0.2,0.2003,0.2007,0.2064,0,0,0,0,0,0,0.1523,0.1528,0.1544,0.1572,0.1583,0.1629,0.1647,0.1661,0.1716,0.1724,0.1783,0.1792,0.1803,0.1877,0.1884,0.1925,0.1863,0.1997,0.2001,0.2005,0.2059,0.2068,0.2077,0,0,0,0,0,0.152,0.1529,0.1544,0.1551,0.1596,0.163,0.164,0.1689,0.1717,0.1744,0.1798,0.1793,0.1909,0.1881,0.1888,0.1932,0.1995,0.2,0.2005,0.2055,0.2067,0.2077,0,0,0,0,0,0,0.1508,0.1539,0.1556,0.1574,0.161,0.1644,0.1681,0.1708,0.1771,0.1795,0.1819,0.1832,0.191,0.1914,0.1883,0.1989,0.1952,0.1959,0.1987,0.1998,0.2007,0.2003,0.1865,0,0,0,0,0,0.151,0.1533,0.1561,0.1582,0.1604,0.1649,0.1678,0.1709,0.1757,0.1788,0.1834,0.1885,0.1928,0.196,0.1996,0.2049,0.2062,0.2084,0.2093,0.2101,0.2105,0.2173,0.2188,0.2025,0.2025,0.2025,0,0,0.1515,0.1533,0.155,0.1583,0.1621,0.1654,0.1672,0.1725,0.1764,0.1786,0.1877,0.1919,0.1951,0.202,0.2054,0.2034,0.2155,0.2107,0.2113,0.2113,0.218,0.2196,0.221,0.2028,0.2028,0.2027,0,0,0.1522,0.1552,0.1573,0.1605,0.166,0.1685,0.1706,0.1766,0.1813,0.1884,0.1921,0.1993,0.2057,0.2097,0.2118,0.2197,0.2201,0.2215,0.2258,0.2325,0.2339,0.2351,0.2385,0.24,0.2219,0.222,0.222,0,0.1527,0.1552,0.1587,0.1615,0.1651,0.1701,0.1737,0.178,0.1861,0.1911,0.1923,0.2065,0.2089,0.2176,0.2208,0.2216,0.2248,0.2211,0.2336,0.2348,0.236,0.2392,0.2407,0.2223,0.2223,0.2222,0.2222,0,0.1541,0.1578,0.1599,0.1649,0.1692,0.1734,0.179,0.1858,0.1919,0.1966,0.2085,0.2137,0.2223,0.2244,0.2247,0.2351,0.2346,0.2338,0.2303,0.2379,0.2409,0.2424,0.2228,0.2227,0.2226,0.2225,0,0,0.1505,0.159,0.1602,0.1641,0.1718,0.1751,0.1832,0.1915,0.1993,0.2073,0.2179,0.2254,0.2307,0.2335,0.2368,0.2422,0.2523,0.2421,0.2423,0.2445,0.2665,0.2481,0.2479,0.2549,0.2552,0.2555,0.2651,0,0.151,0.1561,0.161,0.1684,0.1721,0.1804,0.1875,0.1962,0.2055,0.2171,0.2243,0.2357,0.2333,0.2409,0.2454,0.2517,0.2568,0.2497,0.2596,0.2598,0.2418,0.2492,0.2565,0.2662,0.2666,0.2668,0.267,0,0.1501,0.1544,0.1608,0.1716,0.1744,0.1803,0.195,0.2021,0.2175,0.2261,0.2379,0.2451,0.2559,0.2534,0.2651,0.2615,0.2646,0.2674,0.2679,0.2494,0.2441,0.2574,0.2697,0.2695,0.2693,0.2691,0.269,0,0.1445,0.1542,0.1598,0.1632,0.1757,0.1828,0.1908,0.2059,0.2148,0.2346,0.2441,0.2568,0.2663,0.272,0.2758,0.2737,0.2871,0.2846,0.2704,0.2691,0.2802,0.2788,0.2934,0.2934,0.2933,0.2933,0.2933,0,0.1406,0.1459,0.1588,0.1617,0.172,0.1816,0.1953,0.2062,0.2234,0.2332,0.2489,0.2578,0.2722,0.2801,0.2812,0.2787,0.2914,0.2719,0.271,0.2823,0.2811,0.2812,0.2797,0.2937,0.2936,0.2935,0.2935,0,0.1329,0.1408,0.1488,0.1634,0.1695,0.1772,0.1967,0.2049,0.2231,0.2372,0.2445,0.2632,0.2726,0.282,0.2931,0.2843,0.2854,0.2818,0.2931,0.2925,0.2618,0.2605,0.2672,0.2666,0.2661,0.2657,0.2654,0,0.1296,0.1323,0.1487,0.1536,0.1612,0.1751,0.1835,0.2038,0.2114,0.2355,0.2385,0.2577,0.2671,0.2677,0.278,0.281,0.2776,0.2768,0.2684,0.261,0.2596,0.259,0.2584,0.2646,0.2645,0.2644,0.2643,0,0.1225,0.1291,0.1346,0.1432,0.1532,0.1656,0.1783,0.1838,0.2041,0.2227,0.2303,0.2383,0.2487,0.2561,0.2619,0.2621,0.2763,0.2718,0.2727,0.2648,0.2581,0.2569,0.2569,0.2626,0.2629,0.263,0.2631,0,0.1176,0.1179,0.1227,0.1291,0.1404,0.1478,0.1609,0.1694,0.1814,0.2065,0.2077,0.2267,0.2445,0.2462,0.2493,0.2506,0.2468,0.2386,0.2412,0.2431,0.2306,0.2183,0.2106,0,0,0,0,0,0.1102,0.1042,0.1072,0.1124,0.1227,0.13,0.1502,0.1632,0.1837,0.1835,0.1958,0.204,0.2134,0.223,0.2197,0.2375,0.2466,0.2325,0.2381,0.2535,0.2554,0.2428,0,0,0,0,0,0,0.1029,0.1028,0.0992,0.0948,0.0957,0.1074,0.1209,0.1388,0.1409,0.1629,0.1697,0.1873,0.1997,0.21,0.2129,0.2161,0.2151,0.2449,0.2444,0.2525,0.2542,0.2557,0.2434,0,0,0,0,0]},{"header":{"parameterUnit":"m.s-1","parameterCategory":2,"la1":30.2991,"la2":30.254,"lo1":-89.0895,"lo2":-89.0444,"dy":0.0017,"dx":0.0017,"nx":28,"ny":28,"refTime":"2025-05-27T03:00:00:Z","depth":"4","parameterNumber":3,"parameterNumberName":"V-component_of_CURRENTS"},"data":[0,0,0,0,0,0,0,0,0,0,0,0,0,0,0,0,0,0,0,0,0,0,0,0,0,0,0,0,0,0,0,0,0,0,0,0,0,0,0,0,0,0,0,0,0,0,0,0,0,0,0,0,0,0,0,0,0,0,-0.0018,-0.0018,0,-0.0058,-0.0058,-0.0059,-0.01,-0.01,-0.0101,-0.0101,-0.0212,-0.0214,-0.0217,0,0,0,0,0,0,0,0,0,0,0,0,0,-0.0012,-0.0012,-0.0018,-0.0018,-0.0018,-0.0058,-0.0058,-0.0059,-0.01,-0.01,-0.0101,-0.0101,-0.0211,-0.0214,-0.0217,0,0,0,0,0,0,0,0,0,0,0,0,0,-0.003,-0.0012,-0.0017,-0.0043,-0.0045,-0.0057,-0.0058,-0.0059,-0.01,-0.01,-0.0101,-0.0102,-0.021,-0.0214,-0.0217,-0.0227,0,0,-0.0229,-0.0231,0,0,0,0,0,0,0,0,-0.0029,-0.0031,-0.0039,-0.0041,-0.0044,-0.0074,-0.0097,-0.0118,-0.01,-0.008,-0.0101,-0.0102,-0.0171,-0.0178,-0.0185,-0.0232,-0.0237,-0.0229,-0.0232,-0.0233,-0.0234,0,0,0,0,0,0,0,-0.0028,-0.0029,-0.0035,-0.0039,-0.0042,-0.0064,-0.0067,-0.0101,-0.0123,-0.0082,-0.0085,-0.0087,-0.0173,-0.0181,-0.0188,-0.0238,-0.0229,-0.0233,-0.0235,-0.0236,-0.032,-0.032,0,0,0,0,0,0,-0.0018,-0.0028,-0.0033,-0.0036,-0.0037,-0.0063,-0.0067,-0.0064,-0.0122,-0.013,-0.0087,-0.0089,-0.0174,-0.0183,-0.0192,-0.0208,-0.0233,-0.0237,-0.0239,-0.032,-0.032,-0.032,0,0,0,0,0,0,-0.0018,-0.0018,-0.0032,-0.0032,-0.0036,-0.0062,-0.0059,-0.0065,-0.0073,-0.0124,-0.0134,-0.009,-0.0175,-0.0186,-0.0218,-0.0213,-0.0238,-0.0242,-0.032,-0.032,-0.032,-0.024,0,0,0,0,0,0,-0.0017,-0.0017,-0.0013,-0.0031,-0.0035,-0.0036,-0.0059,-0.0065,-0.0073,-0.0077,-0.013,-0.0141,-0.0176,-0.0212,-0.0222,-0.0218,-0.0245,-0.032,-0.032,-0.032,-0.0243,-0.0237,-0.0233,0,0,0,0,0,-0.0017,-0.0005,-0.0013,-0.0013,-0.0028,-0.0035,-0.0039,-0.0062,-0.0072,-0.0073,-0.0107,-0.0139,-0.0219,-0.0215,-0.0226,-0.0224,-0.032,-0.032,-0.032,-0.0245,-0.0238,-0.0233,0,0,0,0,0,0,-0.0003,-0.0008,-0.0017,-0.0009,-0.002,-0.0042,-0.0043,-0.0056,-0.0082,-0.0087,-0.0136,-0.0149,-0.0177,-0.0211,-0.0205,-0.025,-0.0276,-0.0279,-0.0215,-0.021,-0.0205,-0.0187,-0.0248,0,0,0,0,0,0.0004,0.0013,-0.0001,0.0005,0.0002,-0.0019,-0.0025,-0.0038,-0.0062,-0.0073,-0.0108,-0.0149,-0.0185,-0.0205,-0.0243,-0.0262,-0.0302,-0.0271,-0.0266,-0.0261,-0.0255,-0.0303,-0.0302,-0.032,-0.032,-0.032,0,0,0.0009,0.0009,0.0012,0.0009,-0.0002,0.0004,-0.0025,-0.0028,-0.0024,-0.0082,-0.0091,-0.0134,-0.0187,-0.021,-0.0226,-0.0237,-0.0278,-0.0261,-0.0256,-0.0253,-0.0303,-0.0301,-0.03,-0.032,-0.032,-0.032,0,0,0.0028,0.0026,0.0039,0.0038,0.0031,0.0021,0.0023,0.0005,-0.0005,-0.0019,-0.0061,-0.0095,-0.0146,-0.0179,-0.0204,-0.0195,-0.0251,-0.0212,-0.0169,-0.0216,-0.0214,-0.0213,-0.0263,-0.0267,-0.0207,-0.0207,-0.0207,0,0.0033,0.0053,0.004,0.0055,0.0061,0.0034,0.005,0.0038,0.0013,0.0007,-0.0014,-0.0086,-0.013,-0.0159,-0.0155,-0.0182,-0.022,-0.0184,-0.0207,-0.0207,-0.0208,-0.0259,-0.0265,-0.0203,-0.0203,-0.0204,-0.0204,0,0.0062,0.008,0.0089,0.0102,0.0105,0.0115,0.0103,0.0101,0.0085,0.0067,0.0035,-0.0024,-0.0065,-0.0087,-0.0117,-0.0142,-0.0172,-0.0195,-0.0217,-0.0201,-0.0256,-0.0264,-0.0197,-0.0199,-0.02,-0.0201,0,0,0.0068,0.0103,0.0107,0.0127,0.0134,0.0141,0.0153,0.0153,0.016,0.0122,0.0119,0.0057,0.0023,-0.0008,-0.0056,-0.0096,-0.0133,-0.0139,-0.0143,-0.0177,-0.0241,-0.0245,-0.0254,-0.016,-0.016,-0.0161,-0.0278,0,0.0093,0.0138,0.0148,0.0189,0.0211,0.0206,0.0221,0.0217,0.0201,0.0191,0.0128,0.0102,0.0054,0.0034,-0.0012,-0.0106,-0.0149,-0.01,-0.026,-0.0265,-0.0262,-0.0261,-0.0164,-0.0283,-0.0285,-0.0286,-0.0287,0,0.0117,0.0148,0.0195,0.0241,0.025,0.027,0.0293,0.0304,0.0283,0.0271,0.0235,0.0183,0.0122,0.0078,-0.0065,-0.0032,-0.0124,-0.02,-0.0206,-0.0242,-0.0282,-0.0306,-0.0302,-0.03,-0.0299,-0.0298,-0.0298,0,0.0126,0.0182,0.0224,0.024,0.0282,0.0305,0.0324,0.0325,0.034,0.0322,0.0317,0.0238,0.0186,0.0075,-0.0078,-0.0072,-0.0247,-0.0261,-0.0354,-0.0356,-0.0353,-0.0352,-0.036,-0.036,-0.036,-0.0359,-0.0359,0,0.0149,0.0184,0.0236,0.0259,0.0313,0.0332,0.038,0.0387,0.0397,0.0413,0.0358,0.0331,0.0182,0.0064,-0.0064,-0.0234,-0.024,-0.0346,-0.0384,-0.0318,-0.0312,-0.0359,-0.0357,-0.0364,-0.0363,-0.0362,-0.0361,0,0.0146,0.0183,0.0233,0.0291,0.032,0.0353,0.0425,0.045,0.0461,0.0478,0.0474,0.0385,0.024,0.0078,-0.0125,-0.0222,-0.0379,-0.0441,-0.0362,-0.0394,-0.0459,-0.0452,-0.0541,-0.0542,-0.0543,-0.0544,-0.0544,0,0.0147,0.0172,0.0249,0.0285,0.0316,0.0383,0.0428,0.0476,0.0509,0.0503,0.0503,0.038,0.0302,0.0031,-0.0154,-0.0393,-0.0429,-0.0507,-0.0471,-0.0449,-0.0477,-0.0468,-0.046,-0.0546,-0.0546,-0.0546,-0.0546,0,0.0138,0.0161,0.02,0.0283,0.0343,0.0423,0.0494,0.0532,0.058,0.0578,0.0547,0.0419,0.0245,0.0039,-0.0156,-0.033,-0.0447,-0.0516,-0.0515,-0.0483,-0.0456,-0.0481,-0.0472,-0.0549,-0.0549,-0.0549,-0.0548,0,0.0121,0.0142,0.0199,0.0283,0.0352,0.0446,0.0495,0.0552,0.06,0.0612,0.0584,0.0424,0.0323,0.0066,-0.0118,-0.0282,-0.0318,-0.0355,-0.0363,-0.0362,-0.0274,-0.0212,-0.0261,0,0,0,0,0,0.0109,0.0148,0.0203,0.0306,0.0373,0.0444,0.0529,0.0574,0.0626,0.0623,0.0624,0.0479,0.0228,0.0103,-0.0058,-0.0165,-0.0375,-0.0362,-0.0427,-0.0567,-0.0563,-0.0491,0,0,0,0,0,0,0.0099,0.0145,0.0197,0.0314,0.0394,0.0497,0.0563,0.0604,0.0618,0.0631,0.0502,0.0447,0.0194,0.0333,-0.0055,-0.0112,-0.0174,-0.0483,-0.0486,-0.0569,-0.0565,-0.0562,-0.0487,0,0,0,0,0]}]]